Location: Cheraw
(34.6968°N, 79.8912°W)
Time: 04:25:07
(UTC+00:00)

X-37B - Visible Passes

Search period start: 16 August 2022 00:00
Search period end: 26 August 2022 00:00
Orbit: 328 x 343 km, 45.0° (Epoch: 12 August)

Date Brightness Start Highest point End Pass type
(mag) Time Alt. Az. Time Alt. Az. Time Alt. Az.
16 Aug 0.6 09:19:47 21° NW 09:21:32 66° NNE 09:24:24 10° ESE visible
17 Aug 1.0 09:40:41 23° W 09:41:55 35° SW 09:44:35 10° SSE visible
18 Aug 2.5 10:02:00 11° SW 10:02:07 11° SW 10:03:04 10° SSW visible
19 Aug 2.5 00:47:10 10° SSE 00:47:59 11° SE 00:47:59 11° SE visible
20 Aug 0.8 01:05:49 10° SSW 01:08:27 37° SE 01:09:04 32° ESE visible
21 Aug 0.7 01:26:02 10° WSW 01:28:50 61° NNW 01:29:43 37° NE visible
22 Aug 2.4 01:47:01 10° W 01:49:25 24° NNW 01:50:00 22° N visible
23 Aug 0.8 00:31:29 10° WSW 00:34:16 62° NNW 00:37:05 10° NE visible
23 Aug 3.4 02:08:30 10° NW 02:09:58 14° NNW 02:09:58 14° NNW visible
24 Aug 2.5 00:52:27 10° W 00:54:51 24° NNW 00:57:15 10° NE visible
25 Aug 3.2 01:13:56 10° NW 01:15:36 14° NNW 01:17:15 10° NNE visible
